Weather History for Wadena, MN

Change the Weather History Date:

Tuesday, April 1, 2014

  Actual Average Record
Temperature  
Mean Temperature 16 °F -  
Max Temperature 21 °F 43 °F 73 °F (1963)
Min Temperature 10 °F 21 °F -4 °F (1975)
Degree Days  
Heating Degree Days 50    
Moisture  
Dew Point 11 °F    
Average Humidity 78    
Maximum Humidity 93    
Minimum Humidity 68    
Precipitation  
Precipitation 0.06 in - - ()
Sea Level Pressure  
Sea Level Pressure 29.89 in    
Wind  
Wind Speed 17 mph (NNE)    
Max Wind Speed 23 mph    
Max Gust Speed 38 mph    
Visibility 7 miles    
Events Snow    
Averages and records for this station are not official NWS values.
T = Trace of Precipitation, MM = Missing Value Source: NWS Daily Summary

Daily Weather History Graph

Daily Weather History Graph

Search for Another Location

Airport:

Trip Planner

Search our weather history database for the weather conditions in past years. The results will help you decide how hot, cold, wet, or windy it might be!

Date:

Astronomy

Apr. 01, 2014 Rise Set
Actual Time 7:00 AM CDT 7:49 PM CDT
Civil Twilight 6:29 AM CDT 8:20 PM CDT
Nautical Twilight 5:53 AM CDT 8:56 PM CDT
Astronomical Twilight 5:15 AM CDT 9:35 PM CDT
Moon 7:56 AM CDT (4/1) 10:22 PM CDT (4/1)
Length of Visible Light 13h 50m
Length of Day
12h 49m
Waxing Crescent, 5% of the Moon is Illuminated
Apr 1
Waxing Crescent
Apr 7
First Quarter
Apr 15
Full
Apr 22
Last Quarter
Apr 29
New

Hourly Weather History & Observations

Time (CDT) Temp. Windchill Dew Point Humidity Pressure Visibility Wind Dir Wind Speed Gust Speed Precip Events Conditions
12:15 AM 17.6 °F 0.1 °F 14.0 °F 86% 29.57 in 1.0 mi NNE 23.0 mph 38.0 mph N/A Snow Light Snow
12:35 AM 15.8 °F 0.9 °F 14.0 °F 93% 29.58 in 0.8 mi NNE 15.0 mph 24.2 mph N/A Snow Snow
12:53 AM 15.8 °F -1.5 °F 14.0 °F 93% 29.58 in 1.0 mi NNE 20.7 mph 26.5 mph N/A Snow Light Snow
1:15 AM 15.8 °F -0.6 °F 12.2 °F 86% 29.59 in 1.2 mi NNE 18.4 mph 24.2 mph N/A Snow Light Snow
1:34 AM 15.8 °F 0.9 °F 12.2 °F 86% 29.60 in 1.5 mi NNE 15.0 mph 25.3 mph N/A Snow Light Snow
1:53 AM 15.8 °F -1.9 °F 12.2 °F 86% 29.61 in 1.5 mi NNE 21.9 mph 29.9 mph N/A Snow Light Snow
2:15 AM 15.8 °F -1.1 °F 10.4 °F 79% 29.62 in 2.5 mi NNE 19.6 mph 27.6 mph N/A Snow Light Snow
2:35 AM 15.8 °F 0.3 °F 12.2 °F 86% 29.64 in 2.5 mi NNE 16.1 mph 23.0 mph N/A Snow Light Snow
2:52 AM 15.8 °F -0.6 °F 10.4 °F 79% 29.65 in 1.5 mi NNE 18.4 mph 26.5 mph N/A Snow Light Snow
3:14 AM 15.8 °F -0.2 °F 10.4 °F 79% 29.67 in 1.8 mi NNE 17.3 mph 20.7 mph N/A Snow Light Snow
3:34 AM 14.0 °F -3.9 °F 10.4 °F 86% 29.68 in 1.0 mi NNE 20.7 mph 26.5 mph N/A Snow Snow
3:52 AM 14.0 °F -3.4 °F 10.4 °F 86% 29.69 in 1.0 mi NNE 19.6 mph 27.6 mph N/A Snow Snow
4:14 AM 14.0 °F -3.9 °F 10.4 °F 86% 29.70 in 0.8 mi NNE 20.7 mph 28.8 mph N/A Snow Snow
4:34 AM 14.0 °F -3.0 °F 10.4 °F 86% 29.71 in 1.0 mi NNE 18.4 mph 24.2 mph N/A Snow Snow
4:53 AM 14.0 °F -2.5 °F 10.4 °F 86% 29.72 in 1.2 mi NNE 17.3 mph 27.6 mph N/A Snow Light Snow
5:15 AM 14.0 °F -3.4 °F 10.4 °F 86% 29.73 in 1.2 mi NNE 19.6 mph 27.6 mph N/A Snow Light Snow
5:35 AM 14.0 °F -3.4 °F 10.4 °F 86% 29.74 in 2.0 mi NNE 19.6 mph 28.8 mph N/A Snow Light Snow
5:53 AM 14.0 °F -3.9 °F 10.4 °F 86% 29.75 in 1.8 mi NNE 20.7 mph 28.8 mph N/A Snow Light Snow
6:15 AM 12.2 °F -5.3 °F 10.4 °F 92% 29.77 in 2.5 mi NNE 18.4 mph 24.2 mph N/A Snow Light Snow
6:35 AM 12.2 °F -5.8 °F 8.6 °F 85% 29.78 in 4.0 mi NNE 19.6 mph 27.6 mph N/A Snow Light Snow
6:52 AM 14.0 °F -3.9 °F 8.6 °F 79% 29.79 in 4.0 mi NNE 20.7 mph 29.9 mph N/A Snow Light Snow
7:15 AM 14.0 °F -4.7 °F 8.6 °F 79% 29.80 in 7.0 mi NNE 23.0 mph 26.5 mph N/A Snow Light Snow
7:35 AM 14.0 °F -3.9 °F 8.6 °F 79% 29.81 in 7.0 mi NNE 20.7 mph 27.6 mph N/A Snow Light Snow
7:53 AM 14.0 °F -1.4 °F 8.6 °F 79% 29.82 in 7.0 mi NNE 15.0 mph 28.8 mph N/A   Overcast
8:15 AM 12.2 °F -5.3 °F 8.6 °F 85% 29.83 in 7.0 mi NNE 18.4 mph 28.8 mph N/A Snow Light Snow
8:34 AM 14.0 °F -3.9 °F 8.6 °F 79% 29.83 in 7.0 mi NNE 20.7 mph 29.9 mph N/A Snow Light Snow
8:53 AM 14.0 °F -3.4 °F 8.6 °F 79% 29.83 in 10.0 mi NNE 19.6 mph 26.5 mph N/A Snow Light Snow
9:15 AM 14.0 °F -0.8 °F 8.6 °F 79% 29.84 in 10.0 mi NNE 13.8 mph - N/A   Scattered Clouds
9:35 AM 15.8 °F 0.9 °F 8.6 °F 73% 29.85 in 10.0 mi NNE 15.0 mph - N/A   Mostly Cloudy
9:53 AM 15.8 °F 0.3 °F 8.6 °F 73% 29.86 in 10.0 mi NNE 16.1 mph - N/A   Overcast
10:14 AM 15.8 °F 1.4 °F 10.4 °F 79% 29.87 in 10.0 mi NNE 13.8 mph - N/A   Overcast
10:35 AM 17.6 °F 3.7 °F 10.4 °F 73% 29.88 in 10.0 mi NNE 13.8 mph 18.4 mph N/A   Mostly Cloudy
10:53 AM 17.6 °F 2.7 °F 10.4 °F 73% 29.89 in 10.0 mi NNE 16.1 mph 19.6 mph N/A   Overcast
11:14 AM 17.6 °F 3.2 °F 10.4 °F 73% 29.90 in 10.0 mi NNE 15.0 mph - N/A   Mostly Cloudy
11:35 AM 17.6 °F 1.7 °F 10.4 °F 73% 29.90 in 10.0 mi NNE 18.4 mph 21.9 mph N/A   Scattered Clouds
11:53 AM 19.4 °F 5.0 °F 10.4 °F 68% 29.92 in 10.0 mi NNE 16.1 mph - N/A   Scattered Clouds
12:14 PM 19.4 °F 5.0 °F 10.4 °F 68% 29.92 in 10.0 mi NNE 16.1 mph 20.7 mph N/A   Clear
12:35 PM 19.4 °F 6.0 °F 10.4 °F 68% 29.94 in 10.0 mi NNE 13.8 mph 23.0 mph N/A   Scattered Clouds
12:53 PM 19.4 °F 6.0 °F 10.4 °F 68% 29.94 in 10.0 mi NNE 13.8 mph 21.9 mph N/A   Mostly Cloudy
1:15 PM 19.4 °F 6.0 °F 10.4 °F 68% 29.95 in 10.0 mi NNE 13.8 mph 18.4 mph N/A   Scattered Clouds
1:35 PM 19.4 °F 6.6 °F 12.2 °F 74% 29.95 in 10.0 mi NNE 12.7 mph 21.9 mph N/A   Clear
1:52 PM 19.4 °F 5.5 °F 12.2 °F 74% 29.95 in 10.0 mi NNE 15.0 mph - N/A   Clear
2:15 PM 19.4 °F 6.0 °F 12.2 °F 74% 29.96 in 10.0 mi NNE 13.8 mph 19.6 mph 0.03 in   Clear
2:35 PM 21.2 °F 6.4 °F 12.2 °F 68% 29.96 in 10.0 mi NNE 18.4 mph 21.9 mph 0.05 in   Clear
2:53 PM 21.2 °F 8.3 °F 12.2 °F 68% 29.96 in 10.0 mi NNE 13.8 mph 19.6 mph 0.06 in   Clear
3:15 PM 21.2 °F 9.5 °F 12.2 °F 68% 29.96 in 10.0 mi NNE 11.5 mph 18.4 mph N/A   Clear
3:35 PM 21.2 °F 8.3 °F 12.2 °F 68% 29.97 in 10.0 mi NNE 13.8 mph 23.0 mph N/A   Clear
3:53 PM 21.2 °F 6.8 °F 12.2 °F 68% 29.97 in 10.0 mi NNE 17.3 mph 20.7 mph N/A   Clear
4:15 PM 21.2 °F 7.3 °F 12.2 °F 68% 29.98 in 10.0 mi NNE 16.1 mph - N/A   Clear
4:35 PM 21.2 °F 7.8 °F 12.2 °F 68% 29.98 in 10.0 mi NNE 15.0 mph 18.4 mph N/A   Clear
4:53 PM 21.2 °F 8.3 °F 12.2 °F 68% 29.99 in 10.0 mi NNE 13.8 mph - N/A   Clear
5:15 PM 21.2 °F 8.9 °F 12.2 °F 68% 30.00 in 10.0 mi NNE 12.7 mph 18.4 mph N/A   Clear
5:34 PM 21.2 °F 8.9 °F 12.2 °F 68% 30.01 in 10.0 mi NNE 12.7 mph 18.4 mph N/A   Clear
5:53 PM 21.2 °F 8.9 °F 12.2 °F 68% 30.01 in 10.0 mi NNE 12.7 mph 18.4 mph N/A   Clear
6:14 PM 19.4 °F 4.5 °F 12.2 °F 74% 30.02 in 10.0 mi NNE 17.3 mph - N/A   Clear
6:35 PM 19.4 °F 5.5 °F 10.4 °F 68% 30.03 in 10.0 mi NNE 15.0 mph 23.0 mph N/A   Clear
6:53 PM 19.4 °F 7.2 °F 10.4 °F 68% 30.04 in 10.0 mi NNE 11.5 mph 20.7 mph N/A   Clear
7:14 PM 19.4 °F 7.9 °F 10.4 °F 68% 30.04 in 10.0 mi NNE 10.4 mph - N/A   Clear
7:35 PM 17.6 °F 4.3 °F 10.4 °F 73% 30.05 in 10.0 mi NNE 12.7 mph - N/A   Clear
7:53 PM 17.6 °F 6.4 °F 10.4 °F 73% 30.06 in 10.0 mi NNE 9.2 mph - N/A   Clear
8:15 PM 17.6 °F 7.3 °F 10.4 °F 73% 30.06 in 10.0 mi NNE 8.1 mph - N/A   Clear
8:35 PM 15.8 °F 5.1 °F 10.4 °F 79% 30.07 in 10.0 mi NNE 8.1 mph - N/A   Clear
8:52 PM 15.8 °F 8.6 °F 10.4 °F 79% 30.08 in 10.0 mi NNE 4.6 mph - N/A   Clear
9:15 PM 15.8 °F 7.2 °F 10.4 °F 79% 30.09 in 10.0 mi NNE 5.8 mph - N/A   Clear
9:35 PM 15.8 °F 6.1 °F 10.4 °F 79% 30.09 in 10.0 mi NNE 6.9 mph - N/A   Clear
9:53 PM 14.0 °F 5.1 °F 10.4 °F 86% 30.09 in 10.0 mi NNE 5.8 mph - N/A   Clear
10:15 PM 12.2 °F 1.7 °F 8.6 °F 85% 30.09 in 10.0 mi NNE 6.9 mph - N/A   Clear
10:34 PM 12.2 °F 2.9 °F 8.6 °F 85% 30.09 in 10.0 mi NNE 5.8 mph - N/A   Clear
10:53 PM 12.2 °F 6.1 °F 10.4 °F 92% 30.10 in 10.0 mi NNE 3.5 mph - N/A   Clear
11:15 PM 12.2 °F - 8.6 °F 85% 30.11 in 10.0 mi Calm Calm - N/A   Clear
11:34 PM 10.4 °F - 8.6 °F 92% 30.11 in 10.0 mi Calm Calm - N/A   Clear
11:53 PM 10.4 °F - 8.6 °F 92% 30.11 in 10.0 mi Calm Calm - N/A   Clear